Tracking 17855 objects as of 26-September-2016
HD Live streaming from Space Station
objects crossing your sky now

TDRS 3

Track TDRS 3 now!
TDRS 3 is classified as:


NORAD ID: 19548
Int'l Code: 1988-091B
Perigee: 35,644.2 km
Apogee: 35,946.7 km
Inclination: 14.8 °
Period: 1,436.2 minutes
Semi major axis: 42166 km
RCS: 38.9601 m2 (large)
Launch date: September 29, 1988
Source: United States (US)
Launch site: AIR FORCE EASTERN TEST RANGE (AFETR)

Backup; still partially operational.
Your satellite tracking list
Your tracking list is empty





NASA's NSSDC Master Catalog

Two Line Element Set (TLE):
1 19548U 88091B   16269.11844414 -.00000319  00000-0  00000+0 0  9997
2 19548  14.8428  10.9330 0035867 301.0469  32.6433  1.00265788 89740
Source of the keplerian elements: AFSPC

N2YO: 527